TimeEST,TemperatureF,Dew PointF,Humidity,Sea Level PressureIn,VisibilityMPH,Wind Direction,Wind SpeedMPH,Gust SpeedMPH,PrecipitationIn,Events,Conditions,WindDirDegrees,DateUTC
12:15 AM,41.9,32.4,69,30.16,10.0,South,5.8,-,N/A,,Overcast,170,2013-01-06 05:15:00
12:35 AM,41.9,32.4,69,30.16,10.0,Calm,Calm,-,N/A,,Overcast,0,2013-01-06 05:35:00
12:55 AM,41.5,32.5,70,30.16,10.0,Calm,Calm,-,N/A,,Overcast,0,2013-01-06 05:55:00
1:15 AM,41.4,32.4,70,30.16,10.0,Calm,Calm,-,N/A,,Overcast,0,2013-01-06 06:15:00
1:35 AM,41.2,32.7,72,30.17,10.0,Calm,Calm,-,N/A,,Overcast,0,2013-01-06 06:35:00
1:55 AM,41.0,32.9,73,30.16,10.0,Calm,Calm,-,N/A,,Overcast,0,2013-01-06 06:55:00
2:15 AM,39.4,34.7,83,30.16,10.0,North,4.6,-,N/A,,Overcast,350,2013-01-06 07:15:00
2:35 AM,40.1,34.3,80,30.15,10.0,Calm,Calm,-,N/A,,Overcast,0,2013-01-06 07:35:00
2:55 AM,39.4,34.2,82,30.13,10.0,SE,6.9,-,N/A,,Overcast,130,2013-01-06 07:55:00
3:15 AM,39.4,34.0,81,30.12,10.0,Calm,Calm,-,N/A,,Overcast,0,2013-01-06 08:15:00
3:35 AM,39.7,34.0,80,30.13,10.0,Calm,Calm,-,N/A,,Overcast,0,2013-01-06 08:35:00
3:55 AM,38.1,33.6,84,30.13,10.0,North,3.5,-,N/A,,Scattered Clouds,350,2013-01-06 08:55:00
4:15 AM,34.7,33.1,94,30.13,10.0,Calm,Calm,-,N/A,,Scattered Clouds,0,2013-01-06 09:15:00
4:35 AM,34.0,32.4,94,30.13,10.0,Calm,Calm,-,N/A,,Scattered Clouds,0,2013-01-06 09:35:00
4:55 AM,32.2,32.0,99,30.12,10.0,Calm,Calm,-,N/A,,Clear,0,2013-01-06 09:55:00
5:15 AM,31.8,31.6,99,30.12,10.0,Calm,Calm,-,N/A,,Clear,0,2013-01-06 10:15:00
5:35 AM,30.9,30.9,100,30.12,10.0,Calm,Calm,-,N/A,,Clear,0,2013-01-06 10:35:00
5:55 AM,28.4,28.2,99,30.11,10.0,Calm,Calm,-,N/A,,Clear,0,2013-01-06 10:55:00
6:15 AM,28.9,28.9,100,30.12,10.0,Calm,Calm,-,N/A,,Clear,0,2013-01-06 11:15:00
6:55 AM,26.2,26.2,100,30.13,10.0,Calm,Calm,-,N/A,,Clear,0,2013-01-06 11:55:00
7:15 AM,27.0,27.0,100,30.13,10.0,Calm,Calm,-,N/A,,Clear,0,2013-01-06 12:15:00
7:35 AM,25.7,25.7,100,30.13,10.0,Calm,Calm,-,N/A,,Clear,0,2013-01-06 12:35:00
7:55 AM,25.5,25.5,100,30.13,10.0,Calm,Calm,-,N/A,,Clear,0,2013-01-06 12:55:00
8:15 AM,27.3,27.3,100,30.13,10.0,Calm,Calm,-,N/A,,Clear,0,2013-01-06 13:15:00
8:35 AM,31.1,31.1,100,30.13,10.0,Calm,Calm,-,N/A,,Clear,0,2013-01-06 13:35:00
8:55 AM,33.8,32.9,96,30.14,10.0,Calm,Calm,-,N/A,,Clear,0,2013-01-06 13:55:00
9:15 AM,36.3,33.6,90,30.14,10.0,Calm,Calm,-,N/A,,Clear,0,2013-01-06 14:15:00
9:35 AM,39.7,34.7,82,30.15,10.0,Calm,Calm,-,N/A,,Clear,0,2013-01-06 14:35:00
9:55 AM,40.5,34.9,80,30.15,10.0,Calm,Calm,-,N/A,,Clear,0,2013-01-06 14:55:00
10:15 AM,42.1,35.1,76,30.14,10.0,Calm,Calm,-,N/A,,Clear,0,2013-01-06 15:15:00
10:35 AM,45.0,35.6,70,30.14,10.0,Calm,Calm,-,N/A,,Clear,0,2013-01-06 15:35:00
10:55 AM,46.6,36.0,67,30.13,10.0,Calm,Calm,-,N/A,,Clear,0,2013-01-06 15:55:00
11:15 AM,47.7,34.5,60,30.12,10.0,Calm,Calm,-,N/A,,Clear,0,2013-01-06 16:15:00
11:35 AM,48.9,34.5,58,30.10,10.0,Calm,Calm,-,N/A,,Clear,0,2013-01-06 16:35:00
12:15 PM,50.4,34.7,55,30.08,10.0,Calm,Calm,-,N/A,,Clear,0,2013-01-06 17:15:00
12:35 PM,51.8,34.7,52,30.07,10.0,Calm,Calm,-,N/A,,Clear,0,2013-01-06 17:35:00
12:55 PM,52.9,34.7,50,30.06,10.0,West,3.5,-,N/A,,Clear,280,2013-01-06 17:55:00
1:15 PM,52.0,34.7,52,30.05,10.0,West,4.6,-,N/A,,Clear,260,2013-01-06 18:15:00
1:35 PM,53.6,34.2,48,30.04,10.0,West,3.5,-,N/A,,Clear,270,2013-01-06 18:35:00
1:55 PM,54.7,34.7,47,30.04,10.0,West,4.6,-,N/A,,Clear,260,2013-01-06 18:55:00
2:15 PM,54.5,34.3,47,30.03,10.0,Calm,Calm,-,N/A,,Clear,0,2013-01-06 19:15:00
2:35 PM,54.0,34.9,49,30.03,10.0,WSW,3.5,-,N/A,,Mostly Cloudy,250,2013-01-06 19:35:00
2:55 PM,53.8,34.7,48,30.03,10.0,SW,6.9,-,N/A,,Overcast,220,2013-01-06 19:55:00
3:15 PM,51.1,34.0,52,30.03,10.0,SW,4.6,-,N/A,,Scattered Clouds,230,2013-01-06 20:15:00
3:55 PM,48.9,33.8,56,30.03,10.0,South,3.5,-,N/A,,Clear,170,2013-01-06 20:55:00
4:15 PM,48.9,34.7,58,30.03,10.0,Calm,Calm,-,N/A,,Scattered Clouds,0,2013-01-06 21:15:00
4:35 PM,49.3,34.7,57,30.03,10.0,Calm,Calm,-,N/A,,Overcast,0,2013-01-06 21:35:00
4:55 PM,48.4,34.3,58,30.03,10.0,Calm,Calm,-,N/A,,Overcast,0,2013-01-06 21:55:00